This is the latest recevied weather packets stored in our database for station/object W8RSN-13. If no packets are shown the sender has not sent any weather packets the latest 10 day(s).
| Time | Temp. | Humidity | Pressure | Rain* | Wind** | Luminosity | Snow |
|---|---|---|---|---|---|---|---|
| 1787681598 | 33.33° C | 32% | 1016.7 hPa | - | - | - | - |
| 1787681297 | 33.33° C | 32% | 1016.6 hPa | - | - | - | - |
| 1787680996 | 33.33° C | 32% | 1016.6 hPa | - | - | - | - |
| 1787680715 | 33.33° C | 33% | 1017 hPa | - | - | - | - |
| 1787680415 | 32.78° C | 34% | 1016.7 hPa | - | - | - | - |
| 1787680114 | 32.78° C | 34% | 1016.8 hPa | - | - | - | - |
| 1787679813 | 32.22° C | 35% | 1016.6 hPa | - | - | - | - |
| 1787679512 | 32.22° C | 37% | 1016.8 hPa | - | - | - | - |
| 1787679211 | 31.67° C | 37% | 1017.2 hPa | - | - | - | - |
| 1787678910 | 31.67° C | 37% | 1017.1 hPa | - | - | - | - |
| 1787678609 | 31.11° C | 37% | 1016.8 hPa | - | - | - | - |
| 1787678308 | 31.11° C | 38% | 1017 hPa | - | - | - | - |
| 1787678007 | 31.11° C | 39% | 1017 hPa | - | - | - | - |
| 1787677706 | 30.56° C | 41% | 1017.1 hPa | - | - | - | - |
| 1787677406 | 30.56° C | 42% | 1017 hPa | - | - | - | - |
| 1787677105 | 30° C | 42% | 1017.1 hPa | - | - | - | - |
| 1787676804 | 29.44° C | 42% | 1017 hPa | - | - | - | - |
| 1787676503 | 30° C | 43% | 1017 hPa | - | - | - | - |
| 1787676202 | 29.44° C | 45% | 1017.1 hPa | - | - | - | - |
| 1787675901 | 28.89° C | 46% | 1017 hPa | - | - | - | - |
| 1787675600 | 28.33° C | 47% | 1017.1 hPa | - | - | - | - |
| 1787675299 | 28.33° C | 46% | 1016.8 hPa | - | - | - | - |
| 1787674998 | 28.33° C | 45% | 1017 hPa | - | - | - | - |
| 1787674697 | 27.78° C | 46% | 1017 hPa | - | - | - | - |
| 1787674396 | 27.78° C | 48% | 1017 hPa | - | - | - | - |
* Rain since midnight (hover to see other rain measurements)
** Current wind speed in m/s (hover to see current wind gust speed)